sat.trackr.live / text

‹ back to catalog

STARLINK-3203

NORAD 49761 · 2021-115AP

PAYLOAD ACTIVE UNKNOWN

§ Identity

Operator
Country
US
Launch date
2021-12-02
Launch site
AFETR
Launch vehicle
Mass (kg)
RCS (m²)

Purposes: comms

External: N2YO · Heavens-Above · Gunter

§ Orbital elements

Epoch: 2026-09-19T19:17:53.022624Z

Period
93.85 min
Inclination
53.1616°
Eccentricity
0.0001272
Mean motion
15.34386376 rev/d
Perigee alt
461.9 km
Apogee alt
463.6 km
Semi-major
6,840.9 km
B*
2.6149e-5
RAAN
332.6402°
Arg perigee
83.8051°
Mean anomaly
276.3097°
Rev number
26,518

§ Raw data

STARLINK-32031 49761U 21115AP  26262.80408591  .00000507  00000+0  26149-4 0  99972 49761  53.1616 332.6402 0001272  83.8051 276.3097 15.34386376265180

JSON: /api/v1/satellites/49761 · /tle

For live sub-satellite position, see the globe view (requires WebGL).

§ Visibility from observer

Set your observer location to see the next 7 days of passes ≥ 10°. The values pass through the URL so the page stays shareable.

No JS? Fill the form by hand. The geolocation button needs JavaScript.